QPF
0.04 0.03 0.02 0.01 0.01 0.01 0.01 0.00 0.00 0.00 0.00 0.00 0.00 0.00 0.01 0.01 0.01 0.01 0.01 0.00 0.00 0.01 0.01 0.01 0.02 0.02 0.02 0.02 0.02 0.02 0.02 0.02 0.02 0.02 0.02 0.02 0.02 0.02 0.02 0.02 0.02 0.02 0.02
0.04 0.03 0.02 0.01 0.01 0.01 0.00 0.00 0.00 0.00 0.00 0.00 0.00 0.00 0.01 0.01 0.01 0.01 0.01 0.00 0.00 0.01 0.01 0.01 0.02 0.03 0.03 0.03 0.03 0.02 0.02 0.02 0.02 0.02 0.02 0.02 0.02 0.02 0.02 0.02 0.02 0.03 0.03
0.04 0.04 0.03 0.01 0.01 0.00 0.00 0.00 0.00 0.00 0.00 0.00 0.00 0.00 0.00 0.01 0.01 0.01 0.01 0.00 0.00 0.00 0.01 0.01 0.02 0.02 0.02 0.02 0.03 0.03 0.02 0.02 0.02 0.02 0.02 0.02 0.02 0.02 0.03 0.03 0.03 0.04 0.04
0.04 0.04 0.04 0.03 0.01 0.00 0.00 0.00 0.00 0.00 0.00 0.00 0.00 0.00 0.00 0.00 0.01 0.01 0.01 0.01 0.00 0.00 0.01 0.00 0.01 0.01 0.00 0.01 0.01 0.02 0.02 0.02 0.02 0.02 0.02 0.02 0.02 0.03 0.04 0.04 0.03 0.04 0.04
0.02 0.03 0.03 0.03 0.01 0.01 0.00 0.00 0.00 0.00 0.00 0.00 0.00 0.00 0.00 0.00 0.00 0.00 0.01 0.00 0.00 0.00 0.00 0.00 0.00 0.00 0.00 0.00 0.00 0.01 0.02 0.02 0.02 0.02 0.03 0.02 0.02 0.03 0.03 0.04 0.04 0.04 0.05
0.01 0.01 0.01 0.02 0.01 0.00 0.00 0.00 0.00 0.00 0.00 0.00 0.00 0.00 0.00 0.00 0.00 0.00 0.00 0.00 0.00 0.00 0.00 0.00 0.00 0.00 0.00 0.00 0.01 0.01 0.02 0.02 0.02 0.03 0.03 0.04 0.04 0.05 0.05 0.04 0.04 0.06 0.06
0.01 0.01 0.01 0.01 0.01 0.00 0.00 0.00 0.00 0.00 0.00 0.00 0.00 0.00 0.00 0.00 0.00 0.00 0.00 0.00 0.00 0.00 0.00 0.00 0.00 0.00 0.00 0.00 0.00 0.01 0.01 0.02 0.02 0.02 0.03 0.04 0.06 0.08 0.08 0.06 0.05 0.06 0.06
0.01 0.01 0.00 0.00 0.00 0.00 0.00 0.00 0.00 0.00 0.00 0.00 0.00 0.00 0.00 0.00 0.00 0.00 0.00 0.00 0.00 0.00 0.00 0.00 0.00 0.00 0.00 0.00 0.00 0.00 0.01 0.02 0.02 0.02 0.02 0.03 0.05 0.07 0.08 0.07 0.06 0.06 0.07
0.02 0.01 0.00 0.00 0.00 0.00 0.00 0.00 0.00 0.00 0.00 0.00 0.00 0.00 0.00 0.00 0.00 0.00 0.00 0.00 0.00 0.00 0.00 0.00 0.00 0.00 0.00 0.00 0.00 0.00 0.01 0.01 0.01 0.02 0.03 0.04 0.05 0.07 0.06 0.06 0.07 0.08 0.10
0.02 0.01 0.00 0.00 0.00 0.00 0.00 0.00 0.00 0.00 0.00 0.00 0.00 0.00 0.00 0.00 0.00 0.00 0.00 0.00 0.00 0.00 0.00 0.00 0.00 0.00 0.00 0.00 0.00 0.00 0.01 0.01 0.02 0.02 0.03 0.07 0.07 0.06 0.07 0.07 0.07 0.08 0.10
0.01 0.01 0.01 0.00 0.00 0.00 0.00 0.00 0.00 0.00 0.00 0.00 0.00 0.00 0.00 0.00 0.00 0.00 0.00 0.00 0.00 0.00 0.00 0.00 0.00 0.00 0.00 0.00 0.00 0.01 0.00 0.01 0.02 0.03 0.04 0.09 0.09 0.05 0.06 0.06 0.05 0.05 0.06
0.00 0.00 0.00 0.00 0.00 0.00 0.00 0.00 0.00 0.00 0.00 0.00 0.00 0.00 0.00 0.00 0.00 0.00 0.00 0.00 0.00 0.00 0.00 0.00 0.00 0.00 0.00 0.00 0.01 0.01 0.01 0.01 0.01 0.03 0.05 0.08 0.09 0.07 0.05 0.05 0.05 0.05 0.05
0.00 0.00 0.00 0.00 0.00 0.00 0.00 0.00 0.00 0.00 0.00 0.00 0.00 0.00 0.00 0.00 0.00 0.00 0.00 0.00 0.00 0.00 0.00 0.00 0.00 0.00 0.00 0.00 0.00 0.00 0.00 0.00 0.00 0.01 0.02 0.03 0.04 0.04 0.03 0.03 0.04 0.05 0.05
0.01 0.00 0.00 0.00 0.00 0.00 0.00 0.00 0.00 0.00 0.00 0.00 0.00 0.00 0.00 0.00 0.00 0.00 0.00 0.00 0.00 0.00 0.00 0.00 0.00 0.00 0.00 0.00 0.00 0.01 0.01 0.00 0.00 0.01 0.01 0.01 0.01 0.02 0.01 0.01 0.02 0.04 0.05
0.01 0.01 0.00 0.00 0.00 0.00 0.00 0.00 0.00 0.00 0.00 0.00 0.00 0.00 0.00 0.00 0.00 0.00 0.00 0.00 0.00 0.00 0.00 0.00 0.00 0.00 0.00 0.00 0.00 0.00 0.00 0.00 0.00 0.01 0.01 0.01 0.01 0.01 0.01 0.02 0.02 0.03 0.04
0.01 0.01 0.00 0.00 0.00 0.00 0.00 0.00 0.00 0.00 0.00 0.00 0.00 0.00 0.00 0.00 0.00 0.00 0.00 0.00 0.00 0.00 0.00 0.00 0.01 0.00 0.00 0.00 0.00 0.00 0.00 0.00 0.00 0.00 0.01 0.01 0.01 0.02 0.02 0.02 0.02 0.02 0.03
0.02 0.01 0.01 0.00 0.00 0.00 0.00 0.00 0.00 0.00 0.00 0.00 0.00 0.00 0.00 0.00 0.00 0.00 0.00 0.00 0.00 0.00 0.00 0.00 0.00 0.00 0.00 0.00 0.00 0.00 0.01 0.01 0.01 0.00 0.01 0.01 0.02 0.02 0.02 0.02 0.02 0.02 0.03
0.02 0.02 0.01 0.01 0.00 0.00 0.00 0.00 0.00 0.00 0.00 0.00 0.00 0.00 0.00 0.00 0.00 0.00 0.00 0.00 0.00 0.00 0.01 0.00 0.00 0.00 0.00 0.00 0.00 0.01 0.01 0.01 0.02 0.01 0.01 0.01 0.02 0.03 0.02 0.02 0.02 0.02 0.02
0.02 0.02 0.02 0.01 0.01 0.00 0.00 0.00 0.00 0.00 0.00 0.00 0.00 0.00 0.00 0.00 0.00 0.00 0.00 0.00 0.00 0.01 0.01 0.01 0.01 0.01 0.00 0.00 0.01 0.01 0.01 0.01 0.01 0.01 0.02 0.02 0.02 0.02 0.02 0.01 0.02 0.02 0.02
0.01 0.02 0.02 0.01 0.01 0.00 0.00 0.00 0.00 0.00 0.00 0.00 0.00 0.00 0.00 0.00 0.00 0.00 0.00 0.00 0.01 0.01 0.01 0.01 0.01 0.01 0.01 0.01 0.01 0.01 0.01 0.01 0.01 0.01 0.02 0.02 0.02 0.01 0.01 0.02 0.02 0.02 0.02
0.01 0.02 0.03 0.02 0.01 0.00 0.00 0.00 0.00 0.00 0.00 0.00 0.00 0.00 0.00 0.00 0.00 0.00 0.00 0.00 0.01 0.01 0.01 0.01 0.01 0.01 0.00 0.00 0.01 0.01 0.01 0.01 0.01 0.01 0.01 0.01 0.01 0.01 0.01 0.02 0.02 0.02 0.02
0.01 0.01 0.02 0.02 0.01 0.00 0.00 0.00 0.00 0.00 0.00 0.00 0.00 0.00 0.00 0.00 0.00 0.00 0.00 0.00 0.00 0.00 0.01 0.01 0.01 0.01 0.01 0.01 0.01 0.01 0.01 0.01 0.01 0.01 0.01 0.01 0.01 0.01 0.01 0.02 0.03 0.03 0.03
0.00 0.01 0.01 0.02 0.02 0.01 0.00 0.00 0.00 0.00 0.00 0.00 0.00 0.00 0.00 0.00 0.00 0.00 0.00 0.00 0.00 0.01 0.01 0.01 0.01 0.01 0.01 0.01 0.02 0.02 0.02 0.02 0.02 0.02 0.02 0.02 0.01 0.02 0.03 0.03 0.04 0.03 0.03
0.01 0.01 0.01 0.02 0.02 0.02 0.01 0.00 0.00 0.00 0.00 0.00 0.00 0.00 0.00 0.00 0.00 0.00 0.01 0.01 0.01 0.01 0.01 0.01 0.01 0.01 0.01 0.01 0.02 0.02 0.02 0.02 0.02 0.02 0.02 0.02 0.02 0.02 0.03 0.03 0.03 0.04 0.03
0.01 0.01 0.01 0.01 0.01 0.02 0.02 0.01 0.00 0.00 0.00 0.00 0.00 0.00 0.00 0.00 0.00 0.01 0.01 0.01 0.01 0.01 0.01 0.01 0.01 0.01 0.01 0.02 0.02 0.02 0.02 0.02 0.02 0.02 0.02 0.03 0.02 0.02 0.03 0.03 0.03 0.04 0.03
0.01 0.01 0.02 0.02 0.01 0.01 0.01 0.01 0.01 0.00 0.00 0.00 0.00 0.00 0.00 0.00 0.01 0.01 0.01 0.01 0.01 0.01 0.01 0.01 0.01 0.01 0.01 0.01 0.02 0.02 0.04 0.04 0.04 0.04 0.04 0.03 0.02 0.02 0.03 0.03 0.03 0.03 0.03
MSLP
1022.41 1022.17 1021.89 1021.60 1021.32 1021.06 1020.81 1020.57 1020.31 1020.02 1019.68 1019.28 1018.85 1018.41 1017.98 1017.62 1017.34 1017.15 1017.03 1016.93 1016.84 1016.69 1016.48 1016.18 1015.82 1015.41 1015.00 1014.61 1014.28 1014.00 1013.77 1013.57 1013.37 1013.16 1012.93 1012.66 1012.37 1012.07 1011.78 1011.51 1011.26 1011.04 1010.83
1022.62 1022.36 1022.08 1021.79 1021.50 1021.23 1020.98 1020.73 1020.47 1020.17 1019.82 1019.42 1018.97 1018.51 1018.07 1017.68 1017.37 1017.13 1016.97 1016.85 1016.73 1016.57 1016.36 1016.06 1015.70 1015.29 1014.87 1014.46 1014.10 1013.79 1013.52 1013.30 1013.09 1012.88 1012.64 1012.38 1012.10 1011.80 1011.49 1011.20 1010.92 1010.67 1010.44
1022.80 1022.55 1022.27 1021.97 1021.68 1021.41 1021.16 1020.92 1020.66 1020.36 1020.02 1019.61 1019.17 1018.70 1018.23 1017.81 1017.45 1017.17 1016.96 1016.79 1016.63 1016.45 1016.22 1015.92 1015.56 1015.16 1014.73 1014.31 1013.93 1013.58 1013.29 1013.04 1012.81 1012.58 1012.34 1012.08 1011.79 1011.48 1011.16 1010.84 1010.53 1010.24 1009.99
1022.97 1022.72 1022.45 1022.17 1021.89 1021.62 1021.37 1021.13 1020.88 1020.59 1020.26 1019.86 1019.42 1018.95 1018.47 1018.01 1017.61 1017.27 1017.00 1016.77 1016.55 1016.33 1016.08 1015.78 1015.42 1015.02 1014.60 1014.17 1013.77 1013.40 1013.08 1012.79 1012.53 1012.29 1012.03 1011.76 1011.45 1011.13 1010.79 1010.43 1010.09 1009.77 1009.48
1023.11 1022.89 1022.64 1022.37 1022.11 1021.86 1021.62 1021.38 1021.14 1020.86 1020.54 1020.16 1019.73 1019.26 1018.77 1018.29 1017.84 1017.44 1017.09 1016.79 1016.52 1016.25 1015.97 1015.65 1015.30 1014.90 1014.49 1014.06 1013.64 1013.25 1012.90 1012.57 1012.28 1011.99 1011.71 1011.41 1011.08 1010.73 1010.36 1009.98 1009.60 1009.24 1008.92
1023.24 1023.04 1022.82 1022.58 1022.34 1022.10 1021.88 1021.65 1021.41 1021.15 1020.85 1020.49 1020.08 1019.62 1019.12 1018.62 1018.13 1017.68 1017.26 1016.89 1016.55 1016.23 1015.90 1015.57 1015.21 1014.82 1014.40 1013.98 1013.55 1013.14 1012.74 1012.38 1012.03 1011.70 1011.37 1011.03 1010.67 1010.28 1009.88 1009.46 1009.04 1008.65 1008.29
1023.34 1023.18 1022.99 1022.78 1022.56 1022.34 1022.13 1021.91 1021.69 1021.45 1021.16 1020.83 1020.45 1020.01 1019.53 1019.02 1018.50 1018.00 1017.52 1017.07 1016.66 1016.28 1015.91 1015.54 1015.16 1014.77 1014.35 1013.92 1013.48 1013.05 1012.61 1012.20 1011.80 1011.41 1011.01 1010.62 1010.21 1009.78 1009.34 1008.88 1008.43 1008.00 1007.60
1023.41 1023.28 1023.12 1022.94 1022.75 1022.54 1022.34 1022.14 1021.93 1021.71 1021.46 1021.17 1020.83 1020.42 1019.97 1019.47 1018.94 1018.40 1017.86 1017.35 1016.87 1016.41 1015.98 1015.57 1015.17 1014.76 1014.33 1013.89 1013.44 1012.97 1012.50 1012.03 1011.57 1011.11 1010.65 1010.19 1009.72 1009.24 1008.75 1008.25 1007.76 1007.29 1006.86
1023.45 1023.33 1023.20 1023.04 1022.86 1022.68 1022.49 1022.31 1022.12 1021.93 1021.72 1021.48 1021.19 1020.84 1020.43 1019.95 1019.43 1018.87 1018.29 1017.71 1017.16 1016.63 1016.13 1015.66 1015.21 1014.77 1014.33 1013.87 1013.40 1012.91 1012.40 1011.88 1011.35 1010.82 1010.29 1009.76 1009.22 1008.67 1008.13 1007.58 1007.05 1006.55 1006.08
1023.44 1023.34 1023.21 1023.06 1022.90 1022.73 1022.56 1022.39 1022.23 1022.07 1021.91 1021.73 1021.50 1021.22 1020.87 1020.44 1019.93 1019.36 1018.75 1018.13 1017.50 1016.90 1016.33 1015.79 1015.29 1014.80 1014.33 1013.85 1013.36 1012.84 1012.30 1011.73 1011.14 1010.54 1009.94 1009.33 1008.71 1008.10 1007.49 1006.90 1006.32 1005.78 1005.28
1023.40 1023.30 1023.17 1023.03 1022.87 1022.70 1022.54 1022.39 1022.26 1022.14 1022.03 1021.91 1021.75 1021.54 1021.25 1020.87 1020.40 1019.84 1019.21 1018.54 1017.85 1017.18 1016.53 1015.92 1015.36 1014.83 1014.32 1013.81 1013.30 1012.75 1012.18 1011.58 1010.94 1010.28 1009.60 1008.91 1008.22 1007.54 1006.87 1006.22 1005.60 1005.02 1004.49
1023.34 1023.23 1023.09 1022.94 1022.78 1022.61 1022.46 1022.33 1022.22 1022.13 1022.07 1022.00 1021.91 1021.76 1021.54 1021.21 1020.78 1020.24 1019.61 1018.91 1018.17 1017.43 1016.71 1016.03 1015.41 1014.82 1014.27 1013.74 1013.20 1012.64 1012.05 1011.41 1010.73 1010.02 1009.28 1008.52 1007.76 1007.01 1006.28 1005.57 1004.91 1004.30 1003.74
1023.28 1023.15 1023.00 1022.84 1022.67 1022.50 1022.35 1022.22 1022.13 1022.07 1022.03 1022.00 1021.96 1021.86 1021.69 1021.42 1021.03 1020.51 1019.89 1019.17 1018.41 1017.62 1016.84 1016.10 1015.41 1014.77 1014.18 1013.62 1013.06 1012.49 1011.88 1011.22 1010.52 1009.76 1008.97 1008.15 1007.33 1006.51 1005.72 1004.97 1004.26 1003.62 1003.04
1023.22 1023.08 1022.92 1022.75 1022.57 1022.40 1022.24 1022.12 1022.02 1021.97 1021.94 1021.93 1021.90 1021.84 1021.70 1021.47 1021.11 1020.63 1020.02 1019.31 1018.53 1017.71 1016.89 1016.10 1015.37 1014.68 1014.05 1013.46 1012.88 1012.29 1011.67 1011.00 1010.27 1009.49 1008.65 1007.79 1006.91 1006.04 1005.20 1004.41 1003.68 1003.01 1002.42
1023.17 1023.02 1022.85 1022.68 1022.50 1022.32 1022.16 1022.03 1021.92 1021.85 1021.81 1021.78 1021.75 1021.69 1021.57 1021.35 1021.03 1020.57 1019.99 1019.30 1018.53 1017.71 1016.87 1016.05 1015.28 1014.56 1013.89 1013.26 1012.66 1012.05 1011.42 1010.74 1010.00 1009.19 1008.33 1007.43 1006.51 1005.60 1004.72 1003.90 1003.16 1002.49 1001.89
1023.12 1022.97 1022.81 1022.64 1022.46 1022.29 1022.12 1021.97 1021.83 1021.73 1021.65 1021.58 1021.52 1021.43 1021.30 1021.09 1020.79 1020.36 1019.82 1019.17 1018.43 1017.62 1016.79 1015.96 1015.16 1014.41 1013.71 1013.05 1012.42 1011.80 1011.15 1010.46 1009.70 1008.88 1008.00 1007.07 1006.13 1005.19 1004.29 1003.46 1002.71 1002.04 1001.46
1023.05 1022.91 1022.76 1022.61 1022.44 1022.27 1022.10 1021.93 1021.77 1021.62 1021.48 1021.36 1021.23 1021.10 1020.94 1020.73 1020.43 1020.04 1019.54 1018.94 1018.24 1017.47 1016.67 1015.85 1015.04 1014.27 1013.54 1012.85 1012.20 1011.54 1010.88 1010.17 1009.40 1008.57 1007.67 1006.73 1005.78 1004.83 1003.92 1003.09 1002.34 1001.69 1001.12
1022.93 1022.81 1022.69 1022.56 1022.41 1022.26 1022.09 1021.90 1021.71 1021.51 1021.31 1021.12 1020.93 1020.74 1020.54 1020.30 1020.01 1019.65 1019.19 1018.65 1018.01 1017.29 1016.52 1015.72 1014.92 1014.14 1013.39 1012.68 1012.00 1011.32 1010.63 1009.90 1009.13 1008.28 1007.38 1006.44 1005.47 1004.52 1003.61 1002.78 1002.04 1001.40 1000.85
1022.75 1022.66 1022.56 1022.46 1022.35 1022.22 1022.05 1021.86 1021.64 1021.40 1021.14 1020.88 1020.62 1020.37 1020.12 1019.86 1019.57 1019.23 1018.82 1018.33 1017.75 1017.09 1016.37 1015.60 1014.82 1014.04 1013.28 1012.55 1011.84 1011.14 1010.43 1009.69 1008.90 1008.06 1007.15 1006.21 1005.24 1004.29 1003.38 1002.55 1001.81 1001.17 1000.62
1022.52 1022.45 1022.38 1022.31 1022.23 1022.12 1021.97 1021.78 1021.54 1021.27 1020.96 1020.64 1020.33 1020.02 1019.73 1019.44 1019.15 1018.82 1018.44 1018.00 1017.48 1016.88 1016.20 1015.48 1014.72 1013.95 1013.19 1012.45 1011.73 1011.01 1010.29 1009.55 1008.75 1007.90 1007.00 1006.05 1005.09 1004.13 1003.22 1002.38 1001.63 1000.98 1000.41
1022.24 1022.19 1022.15 1022.10 1022.05 1021.96 1021.83 1021.65 1021.41 1021.11 1020.77 1020.42 1020.06 1019.71 1019.38 1019.06 1018.75 1018.43 1018.08 1017.67 1017.19 1016.64 1016.01 1015.33 1014.60 1013.86 1013.11 1012.37 1011.65 1010.93 1010.21 1009.46 1008.67 1007.83 1006.93 1005.98 1005.01 1004.05 1003.13 1002.27 1001.50 1000.81 1000.20
1021.95 1021.91 1021.87 1021.85 1021.81 1021.74 1021.63 1021.46 1021.22 1020.93 1020.58 1020.20 1019.81 1019.43 1019.07 1018.73 1018.40 1018.08 1017.73 1017.34 1016.89 1016.37 1015.78 1015.14 1014.45 1013.73 1013.01 1012.29 1011.58 1010.87 1010.16 1009.42 1008.64 1007.80 1006.91 1005.97 1005.00 1004.03 1003.09 1002.20 1001.39 1000.65 999.98
1021.67 1021.62 1021.59 1021.56 1021.53 1021.48 1021.38 1021.22 1021.00 1020.71 1020.36 1019.98 1019.58 1019.18 1018.80 1018.43 1018.08 1017.74 1017.38 1016.99 1016.55 1016.06 1015.50 1014.89 1014.23 1013.55 1012.86 1012.17 1011.49 1010.80 1010.11 1009.39 1008.62 1007.79 1006.91 1005.97 1005.00 1004.02 1003.06 1002.15 1001.29 1000.50 999.76
1021.42 1021.36 1021.32 1021.28 1021.25 1021.19 1021.09 1020.95 1020.74 1020.47 1020.14 1019.76 1019.36 1018.96 1018.55 1018.17 1017.79 1017.42 1017.04 1016.64 1016.19 1015.70 1015.16 1014.58 1013.95 1013.31 1012.65 1012.00 1011.35 1010.69 1010.02 1009.32 1008.57 1007.76 1006.89 1005.96 1004.99 1004.01 1003.03 1002.09 1001.20 1000.36 999.55
1021.21 1021.14 1021.08 1021.02 1020.96 1020.89 1020.80 1020.66 1020.46 1020.21 1019.90 1019.54 1019.15 1018.75 1018.33 1017.92 1017.52 1017.12 1016.71 1016.28 1015.82 1015.32 1014.79 1014.22 1013.63 1013.01 1012.39 1011.77 1011.15 1010.52 1009.87 1009.19 1008.45 1007.66 1006.80 1005.88 1004.92 1003.94 1002.96 1002.01 1001.10 1000.23 999.38
1021.03 1020.95 1020.86 1020.78 1020.70 1020.61 1020.50 1020.36 1020.18 1019.94 1019.65 1019.32 1018.94 1018.55 1018.13 1017.70 1017.27 1016.84 1016.40 1015.94 1015.46 1014.95 1014.42 1013.86 1013.28 1012.69 1012.09 1011.50 1010.89 1010.28 1009.65 1008.97 1008.25 1007.47 1006.62 1005.72 1004.77 1003.81 1002.85 1001.91 1001.00 1000.12 999.27
Thickness
5675 5674 5673 5673 5672 5672 5671 5671 5671 5671 5670 5670 5669 5669 5668 5667 5666 5665 5663 5662 5660 5659 5658 5657 5657 5656 5654 5653 5653 5651 5650 5649 5649 5648 5647 5646 5645 5644 5644 5643 5643 5642 5642
5669 5668 5667 5666 5665 5665 5665 5665 5664 5664 5663 5662 5662 5661 5661 5660 5659 5658 5656 5654 5653 5652 5650 5650 5649 5648 5647 5646 5645 5644 5642 5642 5641 5640 5639 5638 5637 5636 5636 5636 5635 5634 5634
5662 5661 5659 5658 5657 5658 5658 5657 5657 5656 5655 5655 5654 5653 5653 5652 5651 5650 5649 5647 5645 5644 5642 5641 5640 5639 5639 5637 5636 5635 5634 5633 5632 5632 5631 5630 5629 5628 5628 5627 5627 5626 5625
5654 5653 5652 5651 5650 5650 5650 5650 5649 5648 5647 5646 5645 5645 5645 5644 5644 5642 5641 5639 5638 5636 5634 5633 5632 5631 5630 5629 5628 5626 5625 5624 5624 5623 5622 5621 5620 5620 5619 5618 5618 5617 5616
5647 5646 5645 5644 5643 5643 5642 5642 5640 5639 5638 5637 5637 5637 5637 5636 5636 5635 5633 5631 5630 5628 5626 5625 5623 5622 5621 5619 5618 5617 5616 5616 5615 5614 5613 5612 5611 5610 5609 5609 5608 5608 5606
5639 5638 5637 5636 5636 5635 5634 5633 5632 5631 5630 5629 5630 5629 5629 5629 5628 5626 5625 5623 5622 5620 5618 5616 5615 5613 5612 5610 5609 5608 5607 5607 5606 5604 5603 5602 5601 5600 5599 5598 5598 5598 5597
5632 5631 5630 5629 5628 5627 5626 5626 5624 5623 5621 5621 5620 5619 5620 5621 5620 5618 5617 5615 5613 5612 5610 5608 5607 5605 5603 5602 5600 5599 5598 5597 5596 5594 5592 5591 5590 5590 5589 5588 5588 5587 5586
5625 5624 5623 5622 5621 5620 5619 5618 5616 5614 5613 5612 5610 5609 5607 5608 5610 5610 5608 5606 5605 5603 5601 5600 5598 5597 5595 5593 5591 5589 5588 5586 5585 5583 5581 5580 5580 5579 5579 5578 5576 5576 5576
5617 5617 5616 5615 5614 5613 5611 5610 5608 5606 5603 5603 5602 5599 5596 5595 5596 5599 5599 5598 5596 5594 5593 5592 5590 5588 5586 5584 5582 5580 5578 5576 5574 5573 5571 5569 5569 5568 5567 5567 5566 5564 5563
5610 5610 5609 5608 5606 5605 5603 5602 5601 5599 5597 5594 5593 5592 5590 5588 5584 5585 5588 5588 5587 5585 5584 5583 5581 5579 5577 5575 5573 5570 5568 5566 5564 5562 5561 5559 5558 5557 5556 5555 5553 5553 5552
5603 5603 5602 5600 5599 5598 5596 5595 5593 5592 5590 5587 5585 5583 5582 5580 5578 5574 5575 5577 5577 5576 5574 5573 5571 5569 5567 5565 5562 5560 5558 5555 5553 5551 5549 5548 5546 5545 5544 5543 5542 5541 5540
5596 5595 5595 5593 5592 5590 5589 5588 5586 5585 5583 5581 5578 5575 5573 5570 5568 5566 5565 5566 5566 5567 5566 5564 5562 5559 5556 5554 5551 5548 5546 5544 5542 5540 5538 5536 5534 5532 5531 5530 5529 5528 5528
5588 5588 5588 5586 5585 5583 5582 5581 5579 5577 5575 5573 5570 5568 5566 5563 5561 5558 5556 5555 5555 5557 5557 5555 5552 5548 5545 5542 5539 5537 5535 5533 5530 5528 5526 5524 5522 5520 5519 5518 5518 5517 5517
5582 5582 5581 5579 5578 5577 5575 5573 5571 5570 5568 5565 5563 5560 5558 5555 5553 5549 5546 5543 5544 5546 5546 5544 5542 5538 5534 5531 5528 5526 5524 5521 5519 5517 5515 5513 5511 5510 5509 5508 5507 5507 5506
5576 5575 5573 5572 5571 5569 5568 5566 5563 5562 5560 5557 5555 5552 5550 5547 5544 5541 5537 5533 5529 5530 5534 5533 5529 5527 5522 5519 5516 5514 5511 5509 5508 5506 5505 5503 5501 5500 5499 5497 5497 5497 5497
5569 5567 5566 5565 5564 5562 5560 5558 5556 5554 5552 5549 5547 5544 5542 5539 5535 5532 5528 5524 5520 5517 5518 5520 5517 5514 5511 5507 5504 5501 5499 5498 5497 5495 5494 5492 5490 5490 5489 5488 5487 5487 5487
5562 5560 5559 5558 5556 5555 5553 5550 5548 5547 5544 5541 5539 5536 5534 5531 5527 5523 5519 5515 5511 5507 5506 5510 5506 5503 5499 5495 5493 5490 5488 5486 5485 5484 5483 5481 5480 5480 5480 5479 5479 5478 5478
5554 5553 5551 5550 5548 5547 5545 5543 5540 5538 5536 5534 5531 5528 5525 5522 5518 5514 5510 5507 5502 5499 5495 5496 5496 5491 5487 5483 5481 5479 5477 5474 5473 5472 5472 5471 5471 5471 5470 5470 5470 5469 5468
5546 5544 5543 5541 5540 5538 5536 5534 5532 5530 5528 5526 5523 5520 5517 5513 5509 5506 5502 5497 5494 5490 5485 5482 5482 5480 5476 5473 5470 5469 5466 5464 5462 5462 5462 5462 5462 5462 5462 5461 5461 5460 5460
5537 5536 5534 5533 5531 5529 5528 5526 5524 5522 5519 5517 5514 5511 5508 5504 5501 5497 5493 5489 5484 5480 5475 5472 5470 5468 5465 5463 5459 5457 5457 5455 5453 5453 5453 5452 5453 5453 5453 5453 5453 5452 5452
5529 5527 5526 5523 5522 5520 5519 5517 5515 5513 5510 5508 5505 5502 5499 5495 5492 5488 5484 5480 5475 5470 5466 5462 5459 5457 5455 5453 5449 5446 5445 5446 5446 5445 5445 5445 5445 5445 5444 5444 5444 5444 5444
5519 5518 5516 5514 5512 5512 5511 5509 5507 5504 5502 5499 5496 5493 5490 5487 5483 5479 5475 5470 5466 5461 5456 5452 5450 5447 5446 5442 5440 5437 5435 5436 5437 5437 5435 5437 5436 5437 5436 5436 5437 5437 5436
5509 5508 5507 5505 5503 5502 5501 5500 5498 5496 5493 5490 5487 5484 5482 5478 5474 5470 5466 5462 5457 5453 5449 5444 5441 5439 5436 5434 5431 5429 5427 5425 5426 5426 5426 5429 5430 5429 5430 5429 5430 5430 5429
5500 5498 5498 5496 5494 5493 5492 5491 5489 5487 5484 5481 5478 5475 5472 5469 5465 5462 5458 5454 5450 5446 5442 5439 5435 5432 5429 5426 5423 5421 5419 5419 5419 5418 5417 5418 5422 5422 5424 5424 5423 5423 5422
5490 5489 5488 5487 5485 5484 5483 5482 5480 5477 5475 5472 5469 5467 5464 5460 5458 5455 5451 5447 5443 5440 5436 5432 5429 5425 5422 5420 5417 5415 5413 5412 5413 5413 5410 5409 5412 5414 5417 5417 5417 5415 5414
5481 5480 5479 5478 5476 5475 5474 5473 5471 5469 5466 5463 5460 5458 5455 5452 5449 5446 5442 5439 5436 5433 5430 5427 5423 5419 5416 5413 5410 5407 5404 5403 5403 5404 5404 5402 5403 5403 5408 5410 5410 5408 5407